Location: Arroyo de Fuente Vieja
(40.4902°N, 4.1175°W)
Time: 09:57:43
(UTC+00:00)

USA 234 - Pass Details

Date: 18 April 2024
Orbit: 1099 x 1109 km, 123.0° (Epoch: 26 May)

Event Time Altitude Azimuth Distance (km) Brightness Sun altitude
Exits shadow 19:58:42 14° 114° (ESE) 2,640 4.6 -11.4°
Maximum altitude 20:04:16 63° 37° (NE) 1,219 3.5 -12.4°
Drops below altitude 10° 20:10:42 10° 318° (NW) 2,961 6.7 -13.5°
Sets 20:13:13 0° 315° (NW) 3,920 7.7 -13.9°
